Hourly Data Report for October 23, 2015

All times are specified in Local Standard Time (LST). Add 1 hour to adjust for Daylight Saving Time where and when it is observed.

BAKER LAKE A
NUNAVUT

64°17'56.000" N
96°04'40.000" W
18.60 m
2300503
71926
YBK

Download Data

Hourly Data (October 2015)
Hourly Data Report for October 23, 2015
Temp Definition
°C
Dew Point Temp Definition
°C
Rel Hum Definition
%
Wind Dir Definition
10's deg

Wind Spd Definition
km/h
Visibility Definition
km
Stn Press Definition
kPa
Hmdx Definition


Wind Chill Definition


Weather Definition


TIME
00:00 Legend Double Dagger -2.9 -3.9 93 17 6 9.7 100.07   -5 Cloudy
01:00 Legend Double Dagger -3.0 -3.8 94 36 4 11.3 100.03   -5 LegendNANA
02:00 Legend Double Dagger -2.6 -3.4 94 36 2 12.9 99.94   -3 LegendNANA
03:00 Legend Double Dagger -2.3 -2.9 96 36 3 12.9 99.88   -3 Snow Grains
04:00 Legend Double Dagger -1.9 -2.5 96 12 10 11.3 99.80   -6 Snow
05:00 Legend Double Dagger -1.6 -2.2 96 14 8 11.3 99.76   -5 Snow
06:00 Legend Double Dagger -1.4 -2.0 96 10 6 12.9 99.68   -4 Snow
07:00 Legend Double Dagger -1.0 -1.4 97 7 8 0.8 99.59   -4 Moderate Snow Grains
08:00 Legend Double Dagger -0.9 -1.3 97 9 10 3.2 99.54   -4 Snow
09:00 Legend Double Dagger -0.7 -1.1 97 6 8 1.6 99.47   -4 Snow
10:00 Legend Double Dagger -0.9 -1.6 95 4 14 6.4 99.43   -5 Snow
11:00 Legend Double Dagger -1.5 -2.5 93 1 20 2.4 99.41   -7 Snow
12:00 Legend Double Dagger -2.2 -3.5 91 36 33 1.6 99.42   -10 Snow
13:00 Legend Double Dagger -2.9 -4.3 90 35 43 4.0 99.46   -12 Snow,Blowing Snow
14:00 Legend Double Dagger -3.9 -5.5 89 35 51 6.4 99.52   -14 Snow,Blowing Snow
15:00 Legend Double Dagger -6.1 -7.8 88 35 56 2.4 99.65   -17 Snow,Blowing Snow
16:00 Legend Double Dagger -8.2 -9.9 88 34 60 0.8 99.77   -20 Blowing Snow
17:00 Legend Double Dagger -9.6 -11.2 88 35 66 0.6 99.89   -23 Blowing Snow
18:00 Legend Double Dagger -11.3 -13.3 85 34 71 0.6 100.05   -25 Blowing Snow
19:00 Legend Double Dagger -12.9 -14.9 85 34 62 0.8 100.15   -27 Blowing Snow
20:00 Legend Double Dagger -12.8 -14.8 85 34 66 0.8 100.28   -27 Blowing Snow
21:00 Legend Double Dagger -12.4 -14.3 86 34 64 0.4 100.45   -26 Blowing Snow
22:00 Legend Double Dagger -12.6 -14.8 84 35 50 1.2 100.59   -25 Blowing Snow
23:00 Legend Double Dagger -13.3 -15.5 84 34 53 1.2 100.72   -27 Blowing Snow

Notes on Data Quality.

Legend

  • E = Estimated
  • M = Missing
  • NA = Not Available
  • ‡ = Partner data that is not subject to review by the National Climate Archives
Date modified: